Temperature
13 13 14 13 13 13 13 13 13 13 13 13 13 13 12 12 12 12 12 11 11 11 11 11 11 10 10 11 11 11 11 11 11 11 11 11 11 11 11 11 11 11 11
13 13 13 13 13 13 13 13 13 13 13 12 12 12 12 12 12 11 11 11 11 11 11 10 10 10 10 10 10 10 10 10 10 10 10 11 11 11 11 11 11 11 11
13 13 13 13 13 13 13 12 12 12 12 12 12 12 12 11 11 11 11 10 10 10 10 10 10 10 10 10 10 10 10 10 10 10 10 10 10 10 10 10 10 10 10
12 12 12 12 12 12 12 12 12 12 12 12 12 11 11 11 11 10 10 10 10 10 10 10 10 10 9 9 10 9 9 9 9 9 9 9 9 9 9 9 9 10 10
12 12 12 12 12 12 12 12 12 12 11 11 11 11 11 10 10 10 10 9 9 9 9 9 9 9 9 9 9 9 9 9 9 9 8 8 8 8 8 8 9 9 9
11 11 11 11 11 11 11 11 11 11 11 11 11 10 10 10 9 9 9 9 9 9 9 9 8 8 8 8 8 8 8 8 8 8 8 8 8 8 8 8 8 8 8
11 11 11 11 11 11 11 11 11 11 10 10 10 10 9 9 9 9 9 8 8 8 8 8 8 8 8 8 8 8 8 7 7 7 7 7 7 7 7 7 7 7 7
10 10 10 10 10 10 10 10 10 10 10 10 10 9 9 9 9 9 8 8 8 8 8 8 7 7 7 7 7 7 7 7 7 7 6 6 6 6 6 6 6 6 6
10 10 10 10 10 10 10 10 10 9 9 9 9 9 9 9 8 8 8 8 8 7 7 7 7 7 7 7 7 7 7 7 6 6 6 6 6 6 6 5 5 5 6
9 9 9 9 9 9 9 9 9 9 9 9 9 8 8 8 8 8 7 7 7 7 7 7 7 6 6 6 6 6 6 6 6 6 6 5 5 5 5 5 5 5 5
9 9 9 9 9 9 9 9 8 8 8 8 8 8 8 7 7 7 7 7 7 7 7 6 6 6 6 6 6 6 6 6 5 5 5 5 5 5 4 4 4 4 4
9 9 9 8 8 8 8 8 8 8 8 8 7 7 7 7 7 6 6 6 7 7 6 6 6 6 5 5 5 5 5 5 5 5 5 4 4 4 4 4 4 3 3
9 8 8 8 8 8 8 8 8 7 7 7 7 7 7 6 6 6 5 5 6 6 6 6 5 5 5 5 5 5 5 5 4 4 4 4 4 4 4 4 3 3 3
8 8 8 8 8 7 7 7 7 7 7 7 6 6 6 6 6 5 5 5 5 5 5 5 5 5 4 4 4 4 4 4 4 4 4 3 3 3 3 3 3 3 3
8 8 7 7 7 7 7 7 7 6 6 6 6 6 6 5 5 5 5 4 4 3 4 4 4 4 4 4 4 4 4 4 3 3 3 3 3 3 3 3 3 3 2
7 7 7 7 7 7 6 6 6 6 6 6 5 5 5 5 5 4 4 4 3 3 3 3 4 3 3 3 3 3 3 3 3 3 3 3 2 2 2 2 2 2 2
7 7 7 7 7 6 6 6 6 6 5 5 5 5 5 5 4 4 4 4 3 3 3 3 3 3 3 3 3 3 3 3 3 2 2 2 2 2 2 1 1 1 1
6 6 6 6 6 6 6 6 5 5 5 5 5 4 4 4 4 4 4 3 3 3 2 2 3 3 3 2 2 2 2 2 2 2 2 1 1 1 1 1 1 1 1
6 6 6 6 6 6 5 5 5 5 5 4 4 4 4 4 4 3 3 3 3 2 2 2 2 2 2 2 2 2 2 2 2 1 1 1 1 1 1 0 0 0 0
6 5 5 5 5 5 5 5 5 4 4 4 4 4 4 3 3 3 3 3 2 2 2 1 1 1 2 1 1 1 1 1 1 1 1 1 0 0 -0 -0 -0 -0 -0
5 5 5 5 5 4 4 4 4 4 4 4 4 3 3 3 3 2 2 2 2 1 1 1 1 1 1 1 1 0 0 0 1 0 0 0 -0 -0 -0 -1 -1 -1 -1
5 4 4 4 4 4 4 4 4 4 3 3 3 3 3 3 2 2 2 1 1 1 1 0 0 0 0 0 -0 -0 -1 -1 -0 -0 -0 -0 -1 -1 -1 -1 -1 -1 -1
4 4 4 4 4 4 4 4 3 3 3 3 3 2 2 2 2 2 1 1 1 1 0 0 -0 -0 -0 -1 -1 -1 -1 -1 -1 -1 -2 -1 -1 -1 -1 -1 -2 -2 -2
4 4 4 4 4 4 3 3 3 3 3 2 2 2 2 2 1 1 1 1 1 0 0 -0 -1 -1 -1 -1 -2 -2 -2 -2 -2 -2 -2 -2 -1 -1 -2 -2 -2 -2 -2
4 3 3 3 3 3 3 3 2 2 2 2 2 2 1 1 1 1 0 0 0 0 -0 -1 -1 -1 -1 -2 -2 -2 -3 -3 -3 -2 -3 -3 -3 -3 -2 -2 -2 -3 -3
3 3 3 3 3 3 3 2 2 2 2 2 1 1 1 1 0 -0 -0 -0 -0 -0 -1 -1 -1 -1 -2 -2 -3 -3 -3 -4 -4 -4 -4 -4 -4 -4 -4 -3 -3 -3 -3
Wind_Speed
4 4 4 5 5 5 5 4 5 5 5 5 5 5 5 5 6 7 7 9 9 9 8 8 8 8 8 8 8 8 8 8 8 8 8 8 8 8 8 7 6 6 6
5 4 4 4 4 5 4 4 4 3 3 4 4 5 5 5 6 7 8 9 10 10 10 9 10 10 10 10 10 10 10 9 9 9 9 9 9 8 8 8 7 7 7
7 5 3 3 4 5 5 5 5 5 3 3 3 4 4 5 6 7 8 8 8 9 10 9 9 10 10 10 10 10 11 10 10 10 10 9 9 9 9 9 8 8 8
7 6 3 3 4 6 5 3 3 4 3 3 2 2 3 4 5 6 7 8 8 8 9 10 10 10 10 10 10 11 11 11 11 10 10 10 9 9 9 9 9 8 8
7 6 4 4 6 5 4 3 4 3 2 2 2 2 2 2 3 5 6 7 7 7 8 8 9 9 10 10 10 10 10 10 10 10 10 10 10 10 10 10 9 9 9
7 6 5 5 5 4 4 3 4 3 2 2 2 2 2 2 2 3 4 5 6 6 7 7 7 7 8 9 10 10 10 10 10 10 11 11 10 10 10 10 10 9 9
6 6 4 4 4 3 3 3 3 4 3 2 2 2 3 3 2 2 2 3 4 5 6 6 6 6 6 8 9 10 10 11 10 10 10 10 10 10 10 10 9 9 9
5 5 4 3 3 3 4 4 3 2 2 3 2 2 1 2 2 1 1 2 2 3 3 4 4 4 5 6 7 8 10 11 11 10 10 10 10 10 10 10 10 9 10
4 5 4 4 3 3 2 3 3 3 1 2 2 2 2 2 1 2 1 1 1 1 1 1 2 2 3 4 5 7 9 10 11 11 11 10 10 10 10 10 10 10 10
3 4 4 4 3 2 2 2 2 1 2 1 2 2 0 2 1 1 2 1 1 1 1 1 0 1 2 3 4 6 8 9 10 11 11 11 11 11 11 11 10 11 11
2 3 3 3 2 2 2 2 2 1 1 1 0 1 1 1 1 1 2 3 3 2 2 2 1 0 0 2 3 5 7 9 10 11 11 11 11 11 11 11 11 11 12
0 1 2 2 2 1 1 1 1 1 1 1 1 1 1 1 0 1 1 2 3 3 2 1 1 1 1 2 3 5 6 9 10 10 11 11 11 11 12 12 11 11 12
1 2 1 1 1 2 2 2 1 1 1 1 2 1 1 1 1 1 1 2 2 2 2 1 1 2 1 2 4 5 6 8 9 10 11 11 10 11 11 12 11 11 12
3 2 2 2 2 2 2 2 1 1 1 2 2 2 1 1 1 2 2 1 2 2 2 3 2 2 2 3 5 6 6 8 9 10 10 10 10 10 11 11 11 11 11
2 3 3 3 2 3 3 2 2 2 2 2 2 2 2 2 2 2 2 2 2 3 3 3 2 2 4 5 7 6 7 8 9 10 10 9 10 10 10 10 10 10 11
3 3 3 3 3 3 3 2 2 2 2 2 2 2 2 2 2 2 2 2 3 4 4 3 3 3 4 5 7 7 8 8 9 10 10 10 9 10 9 10 10 10 11
3 3 4 4 3 3 3 3 3 3 3 3 2 3 4 3 3 3 3 3 3 3 5 4 3 3 3 4 6 7 8 8 8 9 10 10 9 10 10 10 10 11 11
3 4 4 4 4 4 4 4 4 4 4 4 4 4 4 3 4 4 3 4 4 4 5 6 4 3 4 4 4 4 6 6 7 9 10 9 9 10 10 10 10 10 11
3 3 4 4 4 4 4 4 5 5 5 5 5 5 5 4 4 4 4 4 4 4 4 5 5 3 3 3 3 4 4 4 7 8 8 8 9 10 10 10 10 10 10
4 4 4 5 5 4 4 5 5 5 5 5 5 5 5 5 5 5 4 5 4 4 4 4 5 4 4 3 2 3 4 3 4 5 7 8 9 10 9 9 9 9 10
4 4 4 4 4 4 4 5 5 5 5 5 4 5 5 6 7 6 5 4 4 4 4 4 5 4 4 3 3 3 4 4 4 2 3 4 5 6 7 8 9 9 9
4 4 4 5 5 5 6 8 6 5 5 5 5 5 5 5 7 8 9 8 7 5 5 5 5 5 6 5 4 3 3 3 4 2 2 4 3 4 5 7 9 10 9
4 4 5 5 5 6 8 8 8 5 5 5 5 5 4 5 5 4 6 8 8 10 10 6 7 7 6 5 4 4 4 4 5 3 2 4 2 4 5 8 9 8 8
4 5 5 5 5 6 8 8 7 5 4 5 5 5 5 5 5 5 4 4 5 6 8 6 7 7 7 6 5 5 5 4 4 3 2 3 3 3 4 6 7 6 8
5 5 4 5 6 7 8 8 7 3 4 5 5 5 5 6 9 8 5 5 6 6 8 10 10 9 10 10 6 2 2 3 4 3 2 2 2 3 3 3 5 6 7
5 5 5 5 6 6 8 9 7 3 4 5 4 5 8 8 9 9 5 5 7 7 5 5 6 7 6 7 8 5 4 4 4 3 2 2 2 2 3 3 2 5 6
Wind_Direction
85 78 75 71 59 57 60 55 45 46 50 50 54 65 62 65 73 73 68 73 72 67 61 52 46 38 33 33 33 30 27 24 19 15 13 11 6 359 352 345 335 330 324
92 83 72 66 53 52 57 61 57 61 57 57 53 57 65 71 81 83 82 76 73 69 63 55 49 44 38 37 39 37 33 28 22 18 14 11 8 1 357 353 348 343 337
92 85 71 63 55 60 63 59 50 57 61 57 47 48 63 70 86 93 91 86 75 67 62 56 50 43 37 34 34 34 33 30 25 21 17 12 9 4 0 356 351 346 344
90 86 71 59 64 67 64 67 55 48 42 44 39 33 51 67 85 95 93 89 81 71 63 59 56 49 41 35 31 31 31 30 25 20 15 11 9 5 2 1 0 355 351
87 87 72 59 69 65 54 58 54 54 37 30 35 49 47 66 90 96 92 89 85 78 70 62 58 50 40 33 28 23 22 21 19 14 9 4 2 0 360 1 358 357 356
86 85 74 60 67 69 56 57 62 49 38 26 46 48 41 58 80 87 93 86 80 76 73 69 61 50 40 32 25 17 14 13 11 10 5 0 358 357 356 356 356 356 353
89 83 72 61 58 69 66 63 71 57 33 20 57 32 17 41 70 73 81 84 71 71 75 74 71 61 44 33 23 14 7 3 0 359 356 353 353 353 350 349 350 350 348
85 89 81 72 66 70 61 54 57 61 30 24 70 88 19 351 12 42 59 94 81 66 64 68 73 64 51 39 21 13 6 358 354 353 349 346 345 345 344 345 348 348 347
87 92 90 83 74 75 73 59 63 79 65 16 34 122 144 220 303 330 1 42 37 46 35 50 64 57 52 39 20 5 1 355 350 347 345 346 342 338 339 340 342 343 342
96 98 100 93 83 85 85 62 64 78 106 50 9 20 136 167 173 299 320 332 322 277 272 289 19 67 53 40 17 2 355 349 344 340 338 339 339 336 336 336 337 335 334
105 111 114 111 105 100 109 97 81 73 97 132 112 5 33 40 90 174 276 309 315 282 260 244 227 238 35 25 356 350 346 343 338 335 333 335 336 335 334 334 333 331 329
85 120 136 135 133 129 129 128 118 102 109 127 129 154 163 160 149 152 240 278 287 283 278 241 215 229 266 333 327 333 333 335 334 331 329 330 332 332 332 332 331 330 328
216 225 180 165 169 177 168 141 124 125 147 150 170 183 180 201 189 179 202 261 279 287 293 278 234 227 271 307 308 316 322 327 328 329 325 327 329 328 327 327 327 328 328
212 206 198 202 206 194 178 160 160 192 178 188 201 191 192 217 201 192 190 195 282 291 279 272 273 245 285 300 298 303 313 316 319 321 320 323 324 323 323 323 323 324 325
209 198 200 202 209 204 196 177 199 213 206 215 218 213 212 218 208 205 194 185 196 252 269 267 273 278 297 294 297 293 298 304 311 313 313 315 318 318 318 320 319 321 321
203 196 205 208 209 209 204 194 213 222 218 232 223 221 229 223 215 206 203 209 205 211 251 261 257 276 292 294 295 291 289 298 305 310 309 308 310 316 317 318 317 317 316
209 208 210 212 215 218 214 205 220 225 229 243 242 232 240 230 220 218 210 211 213 208 245 269 260 274 269 277 298 297 292 291 295 304 306 304 308 312 313 314 312 312 314
216 213 210 214 222 222 215 212 224 226 226 234 238 237 245 236 230 226 216 218 219 214 226 261 273 271 265 266 277 287 297 296 294 300 300 301 307 309 310 311 312 312 314
220 219 214 219 227 227 222 220 219 224 224 228 229 230 239 233 242 238 229 228 228 230 222 243 267 264 269 273 285 289 290 296 301 302 299 302 307 307 308 311 311 313 313
215 221 224 225 226 226 225 224 220 222 228 233 231 230 233 230 239 240 239 234 231 232 231 243 261 269 268 272 270 285 299 299 299 304 306 304 305 307 305 308 313 314 315
223 223 225 231 231 227 228 224 222 221 225 238 242 238 238 238 242 244 244 235 228 232 236 246 260 271 272 277 273 265 285 300 292 282 303 303 303 300 300 304 309 309 310
229 225 228 229 233 239 244 239 227 216 219 228 242 248 250 249 254 262 263 257 240 235 237 242 254 259 265 260 259 263 274 296 297 286 300 293 283 279 283 289 298 305 306
228 233 236 231 237 246 251 249 236 214 214 224 233 242 255 255 258 253 268 273 269 262 251 239 243 249 255 248 248 259 252 251 257 263 279 279 273 277 281 287 298 303 307
228 234 238 236 242 253 256 254 247 224 218 228 231 232 238 248 248 251 253 266 268 269 267 252 240 246 244 241 231 239 247 259 260 253 216 265 282 279 291 289 292 309 320
233 237 238 235 241 258 261 259 249 213 227 239 239 235 235 241 257 263 256 260 272 272 271 266 262 264 267 265 251 232 243 264 277 257 205 240 277 296 293 278 282 299 311
233 237 243 240 239 250 261 260 248 212 229 243 245 242 246 251 261 265 251 245 262 270 266 276 274 275 274 271 264 232 222 242 262 267 215 216 252 307 304 285 278 293 302
Height
1529 1530 1531 1531 1532 1533 1533 1534 1534 1534 1534 1534 1534 1534 1534 1534 1534 1534 1534 1534 1534 1534 1533 1532 1532 1531 1530 1529 1528 1528 1527 1526 1525 1525 1524 1523 1522 1522 1521 1520 1520 1519 1519
1529 1529 1530 1531 1531 1532 1532 1533 1533 1533 1533 1533 1533 1533 1533 1533 1533 1533 1533 1533 1533 1532 1532 1531 1530 1529 1529 1528 1527 1526 1525 1524 1524 1523 1522 1521 1520 1519 1518 1517 1517 1516 1516
1528 1529 1530 1530 1530 1531 1531 1531 1532 1532 1532 1532 1532 1532 1532 1532 1532 1532 1532 1532 1532 1531 1530 1530 1529 1528 1527 1526 1526 1525 1524 1523 1522 1521 1520 1519 1518 1517 1516 1515 1514 1513 1513
1528 1528 1529 1529 1529 1530 1530 1530 1530 1531 1531 1531 1531 1531 1531 1531 1531 1531 1531 1531 1530 1530 1529 1528 1528 1527 1526 1525 1524 1523 1522 1521 1520 1519 1518 1517 1516 1515 1514 1512 1511 1510 1509
1527 1528 1528 1528 1528 1529 1529 1529 1529 1530 1530 1530 1530 1530 1530 1530 1530 1530 1530 1529 1529 1528 1528 1527 1526 1525 1524 1523 1522 1521 1520 1519 1518 1517 1516 1515 1514 1512 1511 1510 1509 1507 1506
1527 1527 1527 1527 1527 1528 1528 1528 1528 1528 1528 1528 1528 1528 1528 1529 1529 1529 1528 1528 1528 1527 1526 1525 1524 1523 1522 1521 1520 1519 1518 1517 1516 1515 1514 1513 1511 1510 1508 1507 1506 1505 1503
1526 1526 1526 1526 1526 1527 1527 1527 1527 1527 1527 1527 1527 1527 1527 1527 1527 1527 1527 1527 1526 1525 1525 1524 1523 1522 1520 1519 1518 1517 1516 1515 1514 1512 1511 1510 1509 1507 1506 1504 1503 1502 1500
1525 1525 1525 1525 1525 1526 1526 1526 1525 1525 1525 1525 1525 1525 1525 1527 1525 1525 1525 1525 1524 1524 1523 1522 1521 1520 1518 1517 1516 1515 1514 1513 1511 1510 1509 1507 1506 1505 1503 1502 1500 1498 1497
1524 1524 1524 1524 1524 1524 1524 1524 1524 1524 1524 1524 1524 1524 1524 1523 1523 1524 1523 1523 1522 1522 1521 1520 1519 1518 1516 1515 1514 1513 1511 1510 1508 1507 1506 1504 1503 1502 1500 1499 1497 1495 1493
1522 1522 1523 1523 1523 1523 1523 1522 1522 1522 1522 1522 1522 1522 1522 1521 1522 1521 1521 1520 1520 1519 1519 1517 1516 1515 1514 1513 1511 1510 1509 1507 1505 1504 1503 1501 1500 1499 1497 1495 1493 1492 1490
1521 1521 1521 1521 1521 1521 1521 1521 1521 1521 1521 1520 1520 1520 1520 1519 1519 1519 1518 1518 1518 1517 1516 1515 1514 1513 1511 1510 1509 1507 1506 1504 1502 1501 1499 1498 1496 1495 1493 1492 1490 1488 1486
1519 1519 1519 1520 1520 1520 1520 1519 1519 1519 1519 1519 1518 1518 1518 1517 1516 1516 1515 1515 1514 1514 1513 1512 1511 1510 1508 1507 1506 1504 1503 1501 1499 1498 1496 1494 1493 1491 1489 1488 1486 1484 1482
1517 1517 1518 1518 1518 1518 1518 1517 1517 1517 1516 1516 1516 1516 1515 1515 1514 1514 1513 1512 1511 1510 1509 1508 1508 1507 1506 1504 1503 1501 1499 1498 1496 1494 1492 1491 1489 1487 1485 1484 1482 1480 1478
1515 1515 1515 1516 1516 1516 1515 1515 1514 1514 1514 1514 1513 1513 1512 1512 1511 1511 1510 1510 1508 1507 1506 1505 1504 1504 1502 1501 1499 1498 1496 1494 1492 1490 1489 1487 1485 1483 1481 1480 1478 1476 1474
1513 1513 1513 1513 1513 1513 1513 1512 1512 1512 1511 1511 1510 1510 1509 1509 1508 1507 1507 1506 1506 1504 1502 1501 1501 1500 1499 1498 1496 1494 1492 1490 1488 1486 1485 1483 1481 1479 1477 1475 1474 1472 1470
1510 1510 1510 1510 1510 1510 1510 1509 1509 1509 1508 1508 1507 1506 1506 1505 1505 1504 1503 1503 1502 1501 1499 1497 1497 1496 1495 1494 1492 1490 1488 1486 1484 1482 1480 1479 1477 1475 1473 1471 1469 1467 1466
1507 1507 1507 1507 1507 1507 1507 1506 1506 1505 1505 1504 1503 1503 1502 1501 1501 1500 1499 1498 1498 1497 1495 1493 1493 1492 1490 1489 1487 1485 1484 1481 1480 1478 1476 1474 1472 1470 1469 1467 1465 1463 1461
1504 1504 1504 1504 1503 1503 1503 1502 1502 1502 1501 1500 1499 1499 1498 1497 1496 1496 1495 1494 1493 1492 1491 1489 1487 1487 1485 1484 1482 1481 1479 1477 1475 1474 1472 1470 1468 1466 1464 1462 1460 1458 1457
1500 1500 1500 1499 1499 1499 1499 1498 1498 1497 1497 1496 1495 1494 1494 1493 1492 1491 1490 1489 1488 1488 1486 1484 1482 1482 1480 1479 1477 1476 1474 1473 1471 1469 1467 1466 1464 1462 1460 1458 1456 1454 1452
1496 1496 1496 1495 1495 1495 1494 1494 1493 1493 1492 1492 1491 1490 1489 1488 1487 1486 1485 1485 1484 1483 1481 1479 1478 1476 1475 1474 1472 1470 1469 1468 1466 1464 1463 1461 1459 1457 1455 1453 1451 1449 1447
1492 1492 1491 1491 1491 1490 1490 1489 1489 1488 1487 1487 1486 1485 1485 1484 1483 1482 1481 1480 1479 1477 1476 1474 1473 1471 1470 1469 1467 1466 1464 1462 1460 1459 1457 1456 1455 1453 1451 1449 1447 1445 1443
1487 1487 1487 1486 1486 1485 1485 1484 1484 1483 1482 1482 1481 1480 1480 1479 1478 1477 1476 1475 1474 1472 1471 1469 1468 1466 1465 1464 1463 1461 1459 1457 1455 1455 1453 1451 1450 1448 1446 1444 1442 1440 1438
1483 1482 1482 1481 1481 1481 1480 1480 1479 1478 1477 1477 1476 1475 1474 1474 1473 1472 1471 1470 1468 1467 1466 1465 1463 1461 1460 1459 1458 1456 1454 1453 1451 1450 1448 1445 1445 1443 1442 1439 1438 1436 1434
1477 1477 1477 1477 1476 1476 1475 1475 1474 1473 1472 1472 1471 1470 1469 1468 1468 1467 1465 1464 1463 1462 1461 1459 1458 1456 1455 1454 1453 1451 1450 1448 1446 1445 1443 1441 1439 1438 1437 1435 1433 1432 1430
1472 1472 1472 1471 1471 1471 1470 1470 1469 1468 1467 1466 1466 1465 1464 1463 1462 1461 1460 1458 1457 1456 1456 1454 1452 1451 1450 1448 1447 1446 1444 1443 1440 1439 1438 1436 1434 1432 1431 1430 1429 1428 1426
1467 1467 1467 1466 1466 1466 1466 1465 1464 1462 1462 1461 1461 1460 1459 1458 1457 1456 1454 1453 1451 1450 1450 1448 1447 1445 1444 1443 1442 1441 1439 1438 1436 1434 1433 1432 1430 1429 1426 1425 1425 1424 1422